[[{"header":{"parameterUnit":"m.s-1","parameterCategory":1,"la1":30.2991,"la2":30.254,"lo1":-89.0895,"lo2":-89.0444,"dy":0.0017,"dx":0.0017,"nx":28,"ny":28,"refTime":"2023-11-15T03:00:00:Z","depth":0,"parameterNumber":2,"parameterNumberName":"U-component_of_WINDS"},"data":[0,0,0,0,0,0,0,0,0,0,0,0,0,0,0,0,0,0,0,0,0,0,0,0,0,0,0,0,0,0,0,0,0,0,0,0,0,0,0,0,0,0,0,0,0,0,0,0,0,0,0,0,0,0,0,0,0,0,-5.3921,-5.3922,0,-5.402,-5.4021,-5.4022,-5.3918,-5.3914,-5.3909,-5.3906,-5.4008,-5.4015,-5.4021,0,0,0,0,0,0,0,0,0,0,0,0,0,-5.3642,-5.3648,-5.3921,-5.3922,-5.3923,-5.402,-5.4021,-5.4022,-5.3918,-5.3913,-5.3908,-5.3904,-5.4006,-5.4014,-5.4022,0,0,0,0,0,0,0,0,0,0,0,0,0,-5.3754,-5.365,-5.392,-5.3883,-5.388,-5.4019,-5.4021,-5.4023,-5.3919,-5.3913,-5.3907,-5.3902,-5.4004,-5.4013,-5.4023,-5.4204,0,0,-5.4052,-5.4057,0,0,0,0,0,0,0,0,-5.3748,-5.3765,-5.3887,-5.3886,-5.3883,-5.395,-5.396,-5.4084,-5.3921,-5.3905,-5.3906,-5.3899,-5.3994,-5.4004,-5.4036,-5.4209,-5.4213,-5.4053,-5.4059,-5.4063,-5.4066,0,0,0,0,0,0,0,-5.3741,-5.376,-5.396,-5.3889,-5.3887,-5.3861,-5.3871,-5.3983,-5.3982,-5.3906,-5.3898,-5.3911,-5.3992,-5.4027,-5.4038,-5.4215,-5.4053,-5.4062,-5.4068,-5.4072,-5.4543,-5.4549,0,0,0,0,0,0,-5.3737,-5.3754,-5.3957,-5.3963,-5.3799,-5.3871,-5.3882,-5.3935,-5.3981,-5.3982,-5.3916,-5.3906,-5.4013,-5.4026,-5.4041,-5.4258,-5.4063,-5.4073,-5.4078,-5.4536,-5.4544,-5.4551,0,0,0,0,0,0,-5.3731,-5.3756,-5.3953,-5.3857,-5.388,-5.3882,-5.3943,-5.394,-5.3975,-5.3989,-5.3988,-5.3953,-5.4009,-5.4027,-5.4164,-5.426,-5.4077,-5.4086,-5.4528,-5.4539,-5.4548,-5.4692,0,0,0,0,0,0,-5.3724,-5.3755,-5.3823,-5.3859,-5.3885,-5.4075,-5.3949,-5.3946,-5.3992,-5.3979,-5.4022,-5.4024,-5.4006,-5.4151,-5.4174,-5.427,-5.4093,-5.452,-5.4533,-5.4545,-5.4679,-5.4706,-5.4729,0,0,0,0,0,-5.3714,-5.386,-5.3827,-5.3852,-5.3971,-5.4081,-5.4096,-5.4072,-5.4,-5.407,-5.4078,-5.4022,-5.4245,-5.4165,-5.4191,-5.4291,-5.4514,-5.4529,-5.4544,-5.4668,-5.47,-5.4728,0,0,0,0,0,0,-5.3836,-5.3864,-5.3828,-5.399,-5.4034,-5.4063,-5.415,-5.4107,-5.4172,-5.4158,-5.4125,-5.4136,-5.4282,-5.43,-5.4211,-5.447,-5.4368,-5.4389,-5.4453,-5.4484,-5.4509,-5.4502,-5.4101,0,0,0,0,0,-5.3881,-5.3967,-5.3987,-5.4128,-5.4152,-5.4147,-5.4194,-5.4171,-5.4216,-5.4234,-5.4253,-5.4298,-5.4378,-5.4432,-5.4506,-5.468,-5.4689,-5.4761,-5.4786,-5.4807,-5.4826,-5.4921,-5.4954,-5.4601,-5.4601,-5.46,0,0,-5.3976,-5.4002,-5.4059,-5.4153,-5.4184,-5.4275,-5.4164,-5.4264,-5.4331,-5.4249,-5.4381,-5.4396,-5.4444,-5.4601,-5.4671,-5.4621,-5.4925,-5.4826,-5.4842,-5.485,-5.494,-5.4973,-5.5003,-5.4611,-5.4609,-5.4607,0,0,-5.4197,-5.4224,-5.4345,-5.4379,-5.4428,-5.4424,-5.4453,-5.4489,-5.4496,-5.4627,-5.4568,-5.4647,-5.4785,-5.4823,-5.486,-5.5095,-5.5047,-5.512,-5.5251,-5.5344,-5.5372,-5.5396,-5.5482,-5.5513,-5.5138,-5.5139,-5.5139,0,-5.4309,-5.4443,-5.4413,-5.4518,-5.4562,-5.4491,-5.4614,-5.4648,-5.4719,-5.4751,-5.4693,-5.4866,-5.4893,-5.5059,-5.5116,-5.5148,-5.5181,-5.5116,-5.537,-5.5394,-5.5417,-5.5498,-5.553,-5.5147,-5.5146,-5.5146,-5.5145,0,-5.458,-5.4674,-5.4765,-5.4836,-5.489,-5.5003,-5.4991,-5.5049,-5.5021,-5.5024,-5.5159,-5.5189,-5.5269,-5.5306,-5.528,-5.5469,-5.5436,-5.5375,-5.5272,-5.546,-5.5536,-5.5567,-5.516,-5.5157,-5.5154,-5.5152,0,0,-5.4881,-5.4933,-5.4967,-5.4999,-5.5048,-5.512,-5.523,-5.5308,-5.5359,-5.541,-5.5503,-5.5622,-5.5566,-5.5608,-5.5586,-5.5667,-5.5853,-5.5596,-5.5596,-5.5644,-5.6065,-5.6112,-5.6149,-5.582,-5.5826,-5.5831,-5.6061,0,-5.5104,-5.5295,-5.5272,-5.5455,-5.5542,-5.5476,-5.5573,-5.5613,-5.5618,-5.5693,-5.5698,-5.5784,-5.5702,-5.5728,-5.5805,-5.5814,-5.5938,-5.5797,-5.5908,-5.5912,-5.59,-5.6188,-5.6238,-5.6454,-5.609,-5.6095,-5.6099,0,-5.539,-5.5451,-5.5644,-5.568,-5.5716,-5.5803,-5.5873,-5.5945,-5.599,-5.5988,-5.6035,-5.5999,-5.611,-5.6004,-5.6158,-5.6063,-5.6106,-5.6118,-5.6126,-5.6137,-5.6019,-5.6209,-5.6522,-5.6556,-5.6145,-5.6141,-5.6138,0,-5.5593,-5.5724,-5.5856,-5.5885,-5.593,-5.5993,-5.6014,-5.6053,-5.6102,-5.6163,-5.6194,-5.6268,-5.6309,-5.6366,-5.6351,-5.6275,-5.6509,-5.6401,-5.6512,-5.6513,-5.6566,-5.6564,-5.6894,-5.6591,-5.6591,-5.659,-5.6589,0,-5.5846,-5.5967,-5.5948,-5.603,-5.6164,-5.6135,-5.6269,-5.6282,-5.6317,-5.6401,-5.6347,-5.6427,-5.6401,-5.6479,-5.6468,-5.6598,-5.6616,-5.6619,-5.6615,-5.6625,-5.6625,-5.6655,-5.664,-5.6599,-5.6597,-5.6595,-5.6594,0,-5.6096,-5.6088,-5.6229,-5.6259,-5.627,-5.6368,-5.6394,-5.6471,-5.6471,-5.6578,-5.6602,-5.6603,-5.6693,-5.6682,-5.6783,-5.6775,-5.6938,-5.6914,-5.6923,-5.6918,-5.7031,-5.7021,-5.7393,-5.7441,-5.7106,-5.7109,-5.7112,0,-5.6259,-5.6351,-5.6391,-5.6443,-5.647,-5.6554,-5.6604,-5.6579,-5.6632,-5.6691,-5.6762,-5.6846,-5.6913,-5.706,-5.707,-5.7147,-5.7126,-5.7251,-5.7138,-5.7146,-5.7131,-5.7127,-5.7137,-5.7275,-5.7279,-5.7282,-5.7284,0,-5.655,-5.6541,-5.6615,-5.6688,-5.6748,-5.6804,-5.6854,-5.69,-5.688,-5.6943,-5.7035,-5.7087,-5.7189,-5.7275,-5.7347,-5.737,-5.7325,-5.7319,-5.735,-5.7362,-5.7365,-5.7367,-5.6987,-5.7312,-5.7309,-5.7307,-5.7305,-5.7304,-5.6763,-5.6842,-5.6883,-5.6967,-5.7002,-5.7051,-5.7125,-5.7135,-5.721,-5.7292,-5.7272,-5.7376,-5.7419,-5.7511,-5.7542,-5.7623,-5.7577,-5.762,-5.7632,-5.7643,-5.7658,-5.735,-5.7635,-5.7635,-5.7634,-5.7633,-5.7633,0,-5.7053,-5.7076,-5.7153,-5.7226,-5.7292,-5.7242,-5.7296,-5.7355,-5.7447,-5.749,-5.7557,-5.7662,-5.7745,-5.7762,-5.7841,-5.7903,-5.7884,-5.7925,-5.7921,-5.7927,-5.7693,-5.766,-5.7938,-5.7938,-5.7938,-5.7938,-5.7938,-5.7938,-5.7212,-5.7343,-5.734,-5.7489,-5.751,-5.7612,-5.7647,-5.7692,-5.7726,-5.7846,-5.7915,-5.7925,-5.7958,-5.8039,-5.8113,-5.8116,-5.8149,-5.8198,-5.8193,-5.7974,-5.7944,-5.7914,-5.7883,-5.8205,-5.8205,-5.8421,-5.8423,-5.8424]},{"header":{"parameterUnit":"m.s-1","parameterCategory":1,"la1":30.2991,"la2":30.254,"lo1":-89.0895,"lo2":-89.0444,"dy":0.0017,"dx":0.0017,"nx":28,"ny":28,"refTime":"2023-11-15T03:00:00:Z","depth":0,"parameterNumber":3,"parameterNumberName":"V-component_of_WINDS"},"data":[0,0,0,0,0,0,0,0,0,0,0,0,0,0,0,0,0,0,0,0,0,0,0,0,0,0,0,0,0,0,0,0,0,0,0,0,0,0,0,0,0,0,0,0,0,0,0,0,0,0,0,0,0,0,0,0,0,0,-3.8343,-3.8343,0,-3.8362,-3.8362,-3.8362,-3.8337,-3.8336,-3.8336,-3.8335,-3.8353,-3.8354,-3.8355,0,0,0,0,0,0,0,0,0,0,0,0,0,-3.8283,-3.8285,-3.8343,-3.8344,-3.8344,-3.8362,-3.8362,-3.8362,-3.8337,-3.8336,-3.8335,-3.8334,-3.8352,-3.8354,-3.8355,0,0,0,0,0,0,0,0,0,0,0,0,0,-3.8306,-3.8285,-3.8343,-3.8334,-3.8333,-3.8362,-3.8362,-3.8362,-3.8338,-3.8336,-3.8335,-3.8334,-3.8352,-3.8354,-3.8356,-3.8395,0,0,-3.8362,-3.8363,0,0,0,0,0,0,0,0,-3.8305,-3.8309,-3.8335,-3.8334,-3.8334,-3.8346,-3.8348,-3.8373,-3.8338,-3.8336,-3.8335,-3.8333,-3.8351,-3.8353,-3.836,-3.8396,-3.8396,-3.8362,-3.8363,-3.8364,-3.8364,0,0,0,0,0,0,0,-3.8304,-3.8308,-3.8351,-3.8335,-3.8334,-3.8327,-3.8329,-3.8352,-3.8351,-3.8336,-3.8334,-3.8337,-3.8351,-3.8358,-3.836,-3.8397,-3.8362,-3.8364,-3.8365,-3.8366,-3.8463,-3.8465,0,0,0,0,0,0,-3.8303,-3.8306,-3.835,-3.8351,-3.8316,-3.8329,-3.8331,-3.8343,-3.8351,-3.835,-3.8338,-3.8336,-3.8355,-3.8358,-3.8361,-3.8406,-3.8364,-3.8366,-3.8367,-3.8462,-3.8464,-3.8465,0,0,0,0,0,0,-3.8302,-3.8307,-3.8349,-3.8328,-3.8333,-3.8332,-3.8345,-3.8344,-3.8351,-3.8352,-3.8352,-3.8346,-3.8354,-3.8358,-3.8386,-3.8406,-3.8367,-3.8368,-3.846,-3.8462,-3.8464,-3.8497,0,0,0,0,0,0,-3.8301,-3.8307,-3.8323,-3.8329,-3.8334,-3.8375,-3.8347,-3.8346,-3.8355,-3.8352,-3.8359,-3.8359,-3.8354,-3.8383,-3.8388,-3.8408,-3.837,-3.8458,-3.8461,-3.8464,-3.8494,-3.85,-3.8505,0,0,0,0,0,-3.8299,-3.8332,-3.8324,-3.8329,-3.8354,-3.8377,-3.838,-3.8373,-3.8357,-3.8372,-3.8372,-3.8359,-3.8403,-3.8386,-3.8392,-3.8412,-3.8457,-3.846,-3.8463,-3.8492,-3.8499,-3.8505,0,0,0,0,0,0,-3.8329,-3.8332,-3.8324,-3.836,-3.8368,-3.8372,-3.8392,-3.8381,-3.8394,-3.839,-3.8381,-3.8383,-3.8413,-3.8415,-3.8397,-3.845,-3.8427,-3.8432,-3.8447,-3.8454,-3.8459,-3.8458,-3.8372,0,0,0,0,0,-3.8339,-3.8358,-3.836,-3.8392,-3.8396,-3.8393,-3.8403,-3.8397,-3.8405,-3.8408,-3.841,-3.8418,-3.8433,-3.8444,-3.8458,-3.8494,-3.8495,-3.8511,-3.8516,-3.8521,-3.8525,-3.8542,-3.8549,-3.8476,-3.8476,-3.8475,0,0,-3.8362,-3.8366,-3.8379,-3.8398,-3.8403,-3.8422,-3.8396,-3.8417,-3.8431,-3.8411,-3.8438,-3.8439,-3.8447,-3.8479,-3.8493,-3.8482,-3.8545,-3.8525,-3.8528,-3.853,-3.8546,-3.8553,-3.856,-3.8478,-3.8477,-3.8477,0,0,-3.8413,-3.8418,-3.8444,-3.845,-3.8459,-3.8456,-3.8462,-3.8467,-3.8468,-3.8494,-3.8479,-3.8494,-3.8522,-3.8527,-3.8534,-3.8584,-3.8572,-3.8588,-3.8617,-3.8634,-3.864,-3.8645,-3.8662,-3.8669,-3.8592,-3.8592,-3.8592,0,-3.844,-3.8468,-3.8459,-3.8481,-3.8489,-3.8471,-3.8497,-3.8503,-3.8515,-3.8521,-3.8508,-3.854,-3.8545,-3.8577,-3.8589,-3.8595,-3.8601,-3.8588,-3.864,-3.8645,-3.865,-3.8666,-3.8672,-3.8594,-3.8594,-3.8594,-3.8594,0,-3.85,-3.8519,-3.8539,-3.8551,-3.8561,-3.8585,-3.8579,-3.859,-3.8582,-3.8581,-3.8607,-3.8611,-3.8625,-3.8632,-3.8625,-3.8663,-3.8656,-3.8642,-3.8619,-3.8659,-3.8674,-3.868,-3.8597,-3.8596,-3.8596,-3.8595,0,0,-3.8572,-3.8577,-3.8585,-3.8589,-3.8596,-3.861,-3.8632,-3.8645,-3.8655,-3.8663,-3.8681,-3.8703,-3.8689,-3.8697,-3.869,-3.8705,-3.8743,-3.8689,-3.8689,-3.8698,-3.8784,-3.8794,-3.8801,-3.8735,-3.8736,-3.8737,-3.8783,0,-3.8622,-3.866,-3.8652,-3.8689,-3.8705,-3.8687,-3.8706,-3.8712,-3.871,-3.8723,-3.8721,-3.8737,-3.8719,-3.8722,-3.8737,-3.8736,-3.876,-3.8732,-3.875,-3.8751,-3.8749,-3.8809,-3.8821,-3.8864,-3.8788,-3.8789,-3.879,0,-3.8686,-3.8696,-3.8734,-3.8736,-3.8743,-3.876,-3.8771,-3.8784,-3.8789,-3.8787,-3.8794,-3.8783,-3.8804,-3.878,-3.8808,-3.8789,-3.8796,-3.8796,-3.8797,-3.8799,-3.8773,-3.8812,-3.8877,-3.8884,-3.8799,-3.8799,-3.8798,0,-3.8733,-3.8757,-3.8782,-3.8786,-3.879,-3.8802,-3.8804,-3.8807,-3.8815,-3.8824,-3.8829,-3.884,-3.8847,-3.8855,-3.8848,-3.8832,-3.8876,-3.8852,-3.8874,-3.8874,-3.8884,-3.8884,-3.8951,-3.8889,-3.8889,-3.8889,-3.8889,0,-3.879,-3.8814,-3.8803,-3.8819,-3.8845,-3.8834,-3.886,-3.8859,-3.8863,-3.8877,-3.8862,-3.8876,-3.8865,-3.8878,-3.8872,-3.8895,-3.8898,-3.8896,-3.8894,-3.8898,-3.8898,-3.8902,-3.8899,-3.889,-3.889,-3.889,-3.8889,0,-3.8848,-3.8842,-3.8868,-3.8868,-3.8869,-3.8888,-3.8887,-3.8901,-3.8898,-3.8916,-3.892,-3.8914,-3.8928,-3.8921,-3.8936,-3.8932,-3.8961,-3.8956,-3.896,-3.8958,-3.898,-3.8978,-3.9053,-3.9061,-3.8993,-3.8994,-3.8995,0,-3.8885,-3.8903,-3.8904,-3.8912,-3.8915,-3.8929,-3.8937,-3.8926,-3.8934,-3.894,-3.8953,-3.8966,-3.8975,-3.8998,-3.8995,-3.9006,-3.9,-3.9026,-3.9002,-3.9004,-3.9,-3.8999,-3.9,-3.9031,-3.9031,-3.9032,-3.9033,0,-3.895,-3.8946,-3.8957,-3.8967,-3.8976,-3.8983,-3.8989,-3.8997,-3.8986,-3.8996,-3.901,-3.9017,-3.9031,-3.9044,-3.9053,-3.9054,-3.9041,-3.904,-3.9045,-3.9049,-3.905,-3.9049,-3.8973,-3.9038,-3.9038,-3.9037,-3.9037,-3.9037,-3.8999,-3.9013,-3.9015,-3.9028,-3.9031,-3.9036,-3.9049,-3.9046,-3.9057,-3.9068,-3.906,-3.9076,-3.9079,-3.9089,-3.9092,-3.9104,-3.9094,-3.9102,-3.9104,-3.9106,-3.9109,-3.9048,-3.9105,-3.9105,-3.9105,-3.9105,-3.9105,0,-3.9063,-3.9063,-3.9074,-3.9082,-3.9092,-3.9078,-3.9083,-3.9092,-3.9106,-3.911,-3.9119,-3.9134,-3.9145,-3.9142,-3.9152,-3.9162,-3.9156,-3.9165,-3.9164,-3.9164,-3.9117,-3.9111,-3.9169,-3.9169,-3.9169,-3.9169,-3.9169,-3.9169,-3.9097,-3.912,-3.9115,-3.9139,-3.9138,-3.9153,-3.9157,-3.9162,-3.9164,-3.9181,-3.919,-3.9188,-3.9188,-3.9198,-3.9207,-3.9206,-3.921,-3.9221,-3.9217,-3.9174,-3.9168,-3.9162,-3.9156,-3.9222,-3.9222,-3.9263,-3.9263,-3.9264]}]]